Find Starlink 2164

NORAD ID: 47750 Int'l Des: 2021-017 Owner: SPXS Country: US Constellation: starlink operational
LEOCIRCULAR

現在のビュー

3D地球を読み込み中...

About Starlink 2164

Starlink 2164 (NORAD 47750) is a starlink constellation satellite (v1.0) launched Mar 4, 2021 by SPXS of US. It operates in LEO, CIRCULAR orbit with a mass of 260.00 kg.

次回通過

Passes for default location (London). Set your location on the main map for personalized predictions.

高度履歴

Loading altitude history...

軌道要素

1 47750U 21017AE 26263.74607745 .00040409 00000-0 12382-2 0 9998
2 47750 53.1598 5.6131 0002442 11.4756 348.6301 15.33422664307885
Epoch: Sep 20, 2026 • Age: 11 hours

現在のステータス

高度 482.0 km
遠地点 / 近地点 N/A
速度 7.62 km/s
衛星直下点 -48.73°S, 122.94°W
打ち上げ日 Mar 4, 2021
運用期間 5.5 years
タイプ internet

技術仕様

分類 Payload
質量 260.00 kg
乾燥質量 248.00 kg
長さ 0.20 m
スパン 9.00 m
形状 ? Box + pan
製造者 SPXS
バスタイプ Starlink
フェーズステータス In Orbit
所有者/国 SPXS/US

Most Searched